Wilson Cadiz — 8PSY — position and weather

sailwx.info

Track history (hours):
 
Tides and Currents Weather Stations Pressure Air Temp Water Temp Dewpoint Dewpoint Depression Visibility Wind Speed Wind Dir Waves Ship Positions

Wilson Cadiz

Last reported at 2014-Jul-25 11:09 UTC. Time now 2014-Jul-26 05:07 UTC.
Position N 50°29' W 000°14'.

Length 100 m; draft 5.9 m.

Type: Ship. MMSI: 314216000.

Date/timePositionNaut miles runAvg speedWind from/ knotsBaromVisibWave heightAir tempDewpointWater temp
2014-Jul-25 11:09N 50°29' W 000°14'711.0
2014-Jul-25 10:31N 50°31' W 000°04'1010.3
2014-Jul-25 09:33N 50°34' E 000°11'10 9.6
2014-Jul-25 08:33N 50°37' E 000°26'10 9.7
2014-Jul-25 07:33N 50°41' E 000°40'1110.7
2014-Jul-25 06:32N 50°47' E 000°54'2512.4
2014-Jul-25 04:33N 51°02' E 001°24'1212.1
2014-Jul-25 03:34N 51°10' E 001°39'1110.5
2014-Jul-25 02:33N 51°18' E 001°50'9 9.5
2014-Jul-25 01:33N 51°26' E 001°57'9 9.2
2014-Jul-25 00:33N 51°33' E 002°07'9 9.2
2014-Jul-24 23:33N 51°40' E 002°18'10 9.6
2014-Jul-24 22:33N 51°47' E 002°28'1110.7
2014-Jul-24 21:34N 51°55' E 002°40'1211.6
2014-Jul-24 20:34N 52°03' E 002°52'1312.2
2014-Jul-24 19:32N 52°14' E 003°04'1212.3
2014-Jul-24 18:33N 52°24' E 003°15'1211.9
2014-Jul-24 17:33N 52°33' E 003°26'1111.1
2014-Jul-24 16:34N 52°42' E 003°37'1010.4
2014-Jul-24 15:33N 52°51' E 003°46'10 9.7
2014-Jul-24 14:33N 52°58' E 003°57'1010.1
2014-Jul-24 13:33N 53°05' E 004°10'2711.4
2014-Jul-24 11:10N 53°27' E 004°37'711.7
2014-Jul-24 10:34N 53°30' E 004°47'1212.1
2014-Jul-24 09:33N 53°34' E 005°06'1111.5
2014-Jul-24 08:34N 53°38' E 005°25'1110.6
2014-Jul-24 07:33N 53°41' E 005°42'10 9.9
2014-Jul-24 06:34N 53°44' E 005°57'10 9.8
2014-Jul-24 05:34N 53°48' E 006°13'10 9.8
2014-Jul-24 04:34N 53°50' E 006°29'1010.4
2014-Jul-24 03:33N 53°53' E 006°46'1211.4
2014-Jul-24 02:31N 53°56' E 007°05'1411.8
2014-Jul-24 01:22N 53°60' E 007°28'1011.8
2014-Jul-24 00:33N 54°02' E 007°43'1211.7
2014-Jul-23 23:34N 54°01' E 008°03'1111.3
2014-Jul-23 22:33N 53°60' E 008°22'1110.6
2014-Jul-23 21:33N 53°56' E 008°40'8 8.3
2014-Jul-23 20:34N 53°50' E 008°49'8 8.4
2014-Jul-23 19:33N 53°52' E 009°03'4 3.7
2014-Jul-23 18:28N 53°54' E 009°09'7 7.1
2014-Jul-23 17:27N 53°60' E 009°17'9 8.8
2014-Jul-23 16:25N 54°08' E 009°21'58 5.6
2014-Jul-23 06:10N 54°35' E 010°48'6 9.3
2014-Jul-23 05:33N 54°36' E 010°58'1010.3
2014-Jul-23 04:33N 54°35' E 011°15'1111.1
2014-Jul-23 03:33N 54°31' E 011°33'1010.3
2014-Jul-23 02:34N 54°27' E 011°50'1010.4
2014-Jul-23 01:34N 54°27' E 012°08'1110.7
2014-Jul-23 00:33N 54°37' E 012°15'1111.1
2014-Jul-22 23:34N 54°44' E 012°31'1110.9
2014-Jul-22 22:33N 54°49' E 012°47'1010.3
2014-Jul-22 21:34N 54°52' E 013°04'1110.6
2014-Jul-22 20:34N 54°56' E 013°21'1110.6
2014-Jul-22 19:33N 54°59' E 013°39'1110.7
2014-Jul-22 18:34N 55°02' E 013°57'1110.5
2014-Jul-22 17:33N 55°09' E 014°11'1111.0
2014-Jul-22 16:33N 55°18' E 014°23'1111.0
2014-Jul-22 15:33N 55°26' E 014°36'1110.6
2014-Jul-22 14:34N 55°32' E 014°52'1110.9
2014-Jul-22 13:34N 55°37' E 015°09'1111.0
2014-Jul-22 12:33N 55°42' E 015°26'1111.2
2014-Jul-22 11:33N 55°48' E 015°43'1111.2
2014-Jul-22 10:33N 55°54' E 016°00'1111.0
2014-Jul-22 09:34N 55°59' E 016°17'1111.1
2014-Jul-22 08:33N 56°05' E 016°34'1210.6
2014-Jul-22 07:28N 56°13' E 016°48'1010.9
2014-Jul-22 06:31N 56°23' E 016°57'1010.8
2014-Jul-22 05:33N 56°32' E 017°03'1111.1
2014-Jul-22 04:33N 56°43' E 017°09'1111.3
2014-Jul-22 03:33N 56°54' E 017°16'1111.1
2014-Jul-22 02:34N 57°04' E 017°22'1111.3
2014-Jul-22 01:33N 57°15' E 017°29'1111.2
2014-Jul-22 00:33N 57°25' E 017°36'1110.6
2014-Jul-21 23:33N 57°36' E 017°39'1110.8
2014-Jul-21 22:33N 57°47' E 017°39'1110.9
2014-Jul-21 21:33N 57°58' E 017°40'1110.9
2014-Jul-21 20:33N 58°08' E 017°40'310.9
2014-Jul-21 20:18N 58°11' E 017°39'810.8
2014-Jul-21 19:33N 58°19' E 017°39'1110.7
2014-Jul-21 18:33N 58°30' E 017°40'1010.2
2014-Jul-21 17:34N 58°37' E 017°26'9 0.2
2014-Jul-19 14:33N 58°38' E 017°09'1411.2
2014-Jul-19 13:18N 58°34' E 017°35'1512.4
2014-Jul-19 12:05N 58°19' E 017°41'712.3
2014-Jul-19 11:31N 58°12' E 017°42'1212.0
2014-Jul-19 10:33N 58°00' E 017°43'4 4.2
2014-Jul-19 09:33N 57°56' E 017°43'0 0.3
2014-Jul-19 08:33N 57°56' E 017°44'0 0.2
2014-Jul-19 07:33N 57°57' E 017°44'0 0.1
2014-Jul-19 06:33N 57°57' E 017°44'7 7.4
2014-Jul-19 05:33N 57°49' E 017°45'1211.8
2014-Jul-19 04:33N 57°37' E 017°47'1111.3
2014-Jul-19 03:33N 57°26' E 017°46'1311.5
2014-Jul-19 02:27N 57°14' E 017°38'1111.4
2014-Jul-19 01:31N 57°04' E 017°31'1111.6
2014-Jul-19 00:33N 56°54' E 017°24'1211.7
2014-Jul-18 23:30N 56°42' E 017°15'2311.6
2014-Jul-18 21:33N 56°21' E 016°60'1211.5
2014-Jul-18 20:33N 56°11' E 016°52'1110.9
2014-Jul-18 19:33N 56°02' E 016°40'1111.2
2014-Jul-18 18:33N 55°57' E 016°23'1111.1
2014-Jul-18 17:33N 55°51' E 016°05'1111.1
2014-Jul-18 16:33N 55°46' E 015°48'1111.3
2014-Jul-18 15:33N 55°40' E 015°31'1211.3
2014-Jul-18 14:27N 55°34' E 015°11'1011.3
2014-Jul-18 13:33N 55°29' E 014°56'1211.4
2014-Jul-18 12:32N 55°23' E 014°38'1211.4
2014-Jul-18 11:31N 55°15' E 014°24'1110.7
2014-Jul-18 10:30N 55°10' E 014°07'1111.3
2014-Jul-18 09:33N 55°11' E 013°49'1211.5
2014-Jul-18 08:33N 55°12' E 013°29'1111.5
2014-Jul-18 07:33N 55°14' E 013°09'1212.0
2014-Jul-18 06:33N 55°16' E 012°48'10 9.5
2014-Jul-18 05:33N 55°24' E 012°40'1111.1
2014-Jul-18 04:33N 55°35' E 012°42'1111.1
2014-Jul-18 03:33N 55°46' E 012°41'1110.9
2014-Jul-18 02:33N 55°57' E 012°38'10 9.8
2014-Jul-18 01:33N 56°06' E 012°33'1110.7
2014-Jul-18 00:33N 56°12' E 012°17'1110.9
2014-Jul-17 23:33N 56°18' E 012°01'1111.2
2014-Jul-17 22:32N 56°26' E 011°45'1111.0
2014-Jul-17 21:33N 56°34' E 011°32'1110.8
2014-Jul-17 20:31N 56°41' E 011°18'1310.7
2014-Jul-17 19:17N 56°49' E 010°57'810.5
2014-Jul-17 18:33N 56°51' E 010°44'1010.2
2014-Jul-17 17:33N 56°56' E 010°28'10 9.8
2014-Jul-17 16:33N 56°60' E 010°11'6 5.7
2014-Jul-17 15:32N 57°03' E 010°03'0 0.0
2014-Jul-17 14:26N 57°03' E 010°03'0 0.0
2014-Jul-17 13:32N 57°03' E 010°03'0 0.0
2014-Jul-17 12:32N 57°03' E 010°03'0 0.0
2014-Jul-17 11:32N 57°03' E 010°03'0 0.0
2014-Jul-17 10:20N 57°03' E 010°03'0 0.0
2014-Jul-17 09:32N 57°03' E 010°03'0 0.0
2014-Jul-17 08:32N 57°03' E 010°03'0 0.0
2014-Jul-17 07:26N 57°03' E 010°03'0 0.0
2014-Jul-17 06:32N 57°03' E 010°03'0 0.0
2014-Jul-17 05:32N 57°03' E 010°03'0 0.0
2014-Jul-17 04:26N 57°03' E 010°03'0 0.0
2014-Jul-17 03:26N 57°03' E 010°03'0 0.0
2014-Jul-17 02:32N 57°03' E 010°03'0 0.0
2014-Jul-17 01:29N 57°03' E 010°03'0 0.0
2014-Jul-17 00:32N 57°03' E 010°03'0 0.0
2014-Jul-16 23:32N 57°03' E 010°03'0 0.0
2014-Jul-16 22:26N 57°03' E 010°03'0 0.0
2014-Jul-16 21:29N 57°03' E 010°03'0 0.0
2014-Jul-16 20:32N 57°03' E 010°03'0 0.0
2014-Jul-16 19:29N 57°03' E 010°03'0 0.0
2014-Jul-16 18:32N 57°03' E 010°03'0 0.0
2014-Jul-16 17:26N 57°03' E 010°03'0 0.0
2014-Jul-16 16:32N 57°03' E 010°03'0 0.0
2014-Jul-16 15:32N 57°03' E 010°03'0 0.0
2014-Jul-16 14:29N 57°03' E 010°03'0 0.0
2014-Jul-16 13:32N 57°03' E 010°03'0 0.0
2014-Jul-16 12:29N 57°03' E 010°03'0 0.0
2014-Jul-16 11:26N 57°03' E 010°03'0 0.0
2014-Jul-16 10:26N 57°03' E 010°03'0 0.0
2014-Jul-16 09:32N 57°03' E 010°03'0 0.0
2014-Jul-16 08:32N 57°03' E 010°03'0 0.0
2014-Jul-16 07:32N 57°03' E 010°03'0 0.0
2014-Jul-16 06:29N 57°03' E 010°03'0 0.0
2014-Jul-16 05:29N 57°03' E 010°03'0 0.0
2014-Jul-16 04:32N 57°03' E 010°03'0 0.0
2014-Jul-16 03:17N 57°03' E 010°03'0 0.0
2014-Jul-16 02:29N 57°03' E 010°03'0 0.0
2014-Jul-16 01:29N 57°03' E 010°03'0 0.0
2014-Jul-16 00:32N 57°03' E 010°03'0 0.0
2014-Jul-15 23:29N 57°03' E 010°03'0 0.0
2014-Jul-15 22:29N 57°03' E 010°03'0 0.0
2014-Jul-15 21:32N 57°03' E 010°03'0 0.0
2014-Jul-15 20:26N 57°03' E 010°03'0 0.0
2014-Jul-15 19:32N 57°03' E 010°03'0 0.0
2014-Jul-15 18:32N 57°03' E 010°03'0 0.0
2014-Jul-15 17:32N 57°03' E 010°03'3 3.5
2014-Jul-15 16:33N 57°01' E 010°08'10 9.2
2014-Jul-15 15:27N 56°57' E 010°25'  
Track history (hours):
 
Tides and Currents Weather Stations Pressure Air Temp Water Temp Dewpoint Dewpoint Depression Visibility Wind Speed Wind Dir Waves Ship Positions

Wilson Cadiz

Last reported at 2014-Jul-25 11:09 UTC. Time now 2014-Jul-26 05:07 UTC.
Position N 50°29' W 000°14'.

Length 100 m; draft 5.9 m.

Type: Ship. MMSI: 314216000.

Date/timePositionNaut miles runAvg speedWind from/ knotsBaromVisibWave heightAir tempDewpointWater temp
2014-Jul-25 11:09N 50°29' W 000°14'711.0
2014-Jul-25 10:31N 50°31' W 000°04'1010.3
2014-Jul-25 09:33N 50°34' E 000°11'10 9.6
2014-Jul-25 08:33N 50°37' E 000°26'10 9.7
2014-Jul-25 07:33N 50°41' E 000°40'1110.7
2014-Jul-25 06:32N 50°47' E 000°54'2512.4
2014-Jul-25 04:33N 51°02' E 001°24'1212.1
2014-Jul-25 03:34N 51°10' E 001°39'1110.5
2014-Jul-25 02:33N 51°18' E 001°50'9 9.5
2014-Jul-25 01:33N 51°26' E 001°57'9 9.2
2014-Jul-25 00:33N 51°33' E 002°07'9 9.2
2014-Jul-24 23:33N 51°40' E 002°18'10 9.6
2014-Jul-24 22:33N 51°47' E 002°28'1110.7
2014-Jul-24 21:34N 51°55' E 002°40'1211.6
2014-Jul-24 20:34N 52°03' E 002°52'1312.2
2014-Jul-24 19:32N 52°14' E 003°04'1212.3
2014-Jul-24 18:33N 52°24' E 003°15'1211.9
2014-Jul-24 17:33N 52°33' E 003°26'1111.1
2014-Jul-24 16:34N 52°42' E 003°37'1010.4
2014-Jul-24 15:33N 52°51' E 003°46'10 9.7
2014-Jul-24 14:33N 52°58' E 003°57'1010.1
2014-Jul-24 13:33N 53°05' E 004°10'2711.4
2014-Jul-24 11:10N 53°27' E 004°37'711.7
2014-Jul-24 10:34N 53°30' E 004°47'1212.1
2014-Jul-24 09:33N 53°34' E 005°06'1111.5
2014-Jul-24 08:34N 53°38' E 005°25'1110.6
2014-Jul-24 07:33N 53°41' E 005°42'10 9.9
2014-Jul-24 06:34N 53°44' E 005°57'10 9.8
2014-Jul-24 05:34N 53°48' E 006°13'10 9.8
2014-Jul-24 04:34N 53°50' E 006°29'1010.4
2014-Jul-24 03:33N 53°53' E 006°46'1211.4
2014-Jul-24 02:31N 53°56' E 007°05'1411.8
2014-Jul-24 01:22N 53°60' E 007°28'1011.8
2014-Jul-24 00:33N 54°02' E 007°43'1211.7
2014-Jul-23 23:34N 54°01' E 008°03'1111.3
2014-Jul-23 22:33N 53°60' E 008°22'1110.6
2014-Jul-23 21:33N 53°56' E 008°40'8 8.3
2014-Jul-23 20:34N 53°50' E 008°49'8 8.4
2014-Jul-23 19:33N 53°52' E 009°03'4 3.7
2014-Jul-23 18:28N 53°54' E 009°09'7 7.1
2014-Jul-23 17:27N 53°60' E 009°17'9 8.8
2014-Jul-23 16:25N 54°08' E 009°21'58 5.6
2014-Jul-23 06:10N 54°35' E 010°48'6 9.3
2014-Jul-23 05:33N 54°36' E 010°58'1010.3
2014-Jul-23 04:33N 54°35' E 011°15'1111.1
2014-Jul-23 03:33N 54°31' E 011°33'1010.3
2014-Jul-23 02:34N 54°27' E 011°50'1010.4
2014-Jul-23 01:34N 54°27' E 012°08'1110.7
2014-Jul-23 00:33N 54°37' E 012°15'1111.1
2014-Jul-22 23:34N 54°44' E 012°31'1110.9
2014-Jul-22 22:33N 54°49' E 012°47'1010.3
2014-Jul-22 21:34N 54°52' E 013°04'1110.6
2014-Jul-22 20:34N 54°56' E 013°21'1110.6
2014-Jul-22 19:33N 54°59' E 013°39'1110.7
2014-Jul-22 18:34N 55°02' E 013°57'1110.5
2014-Jul-22 17:33N 55°09' E 014°11'1111.0
2014-Jul-22 16:33N 55°18' E 014°23'1111.0
2014-Jul-22 15:33N 55°26' E 014°36'1110.6
2014-Jul-22 14:34N 55°32' E 014°52'1110.9
2014-Jul-22 13:34N 55°37' E 015°09'1111.0
2014-Jul-22 12:33N 55°42' E 015°26'1111.2
2014-Jul-22 11:33N 55°48' E 015°43'1111.2
2014-Jul-22 10:33N 55°54' E 016°00'1111.0
2014-Jul-22 09:34N 55°59' E 016°17'1111.1
2014-Jul-22 08:33N 56°05' E 016°34'1210.6
2014-Jul-22 07:28N 56°13' E 016°48'1010.9
2014-Jul-22 06:31N 56°23' E 016°57'1010.8
2014-Jul-22 05:33N 56°32' E 017°03'1111.1
2014-Jul-22 04:33N 56°43' E 017°09'1111.3
2014-Jul-22 03:33N 56°54' E 017°16'1111.1
2014-Jul-22 02:34N 57°04' E 017°22'1111.3
2014-Jul-22 01:33N 57°15' E 017°29'1111.2
2014-Jul-22 00:33N 57°25' E 017°36'1110.6
2014-Jul-21 23:33N 57°36' E 017°39'1110.8
2014-Jul-21 22:33N 57°47' E 017°39'1110.9
2014-Jul-21 21:33N 57°58' E 017°40'1110.9
2014-Jul-21 20:33N 58°08' E 017°40'310.9
2014-Jul-21 20:18N 58°11' E 017°39'810.8
2014-Jul-21 19:33N 58°19' E 017°39'1110.7
2014-Jul-21 18:33N 58°30' E 017°40'1010.2
2014-Jul-21 17:34N 58°37' E 017°26'9 0.2
2014-Jul-19 14:33N 58°38' E 017°09'1411.2
2014-Jul-19 13:18N 58°34' E 017°35'1512.4
2014-Jul-19 12:05N 58°19' E 017°41'712.3
2014-Jul-19 11:31N 58°12' E 017°42'1212.0
2014-Jul-19 10:33N 58°00' E 017°43'4 4.2
2014-Jul-19 09:33N 57°56' E 017°43'0 0.3
2014-Jul-19 08:33N 57°56' E 017°44'0 0.2
2014-Jul-19 07:33N 57°57' E 017°44'0 0.1
2014-Jul-19 06:33N 57°57' E 017°44'7 7.4
2014-Jul-19 05:33N 57°49' E 017°45'1211.8
2014-Jul-19 04:33N 57°37' E 017°47'1111.3
2014-Jul-19 03:33N 57°26' E 017°46'1311.5
2014-Jul-19 02:27N 57°14' E 017°38'1111.4
2014-Jul-19 01:31N 57°04' E 017°31'1111.6
2014-Jul-19 00:33N 56°54' E 017°24'1211.7
2014-Jul-18 23:30N 56°42' E 017°15'2311.6
2014-Jul-18 21:33N 56°21' E 016°60'1211.5
2014-Jul-18 20:33N 56°11' E 016°52'1110.9
2014-Jul-18 19:33N 56°02' E 016°40'1111.2
2014-Jul-18 18:33N 55°57' E 016°23'1111.1
2014-Jul-18 17:33N 55°51' E 016°05'1111.1
2014-Jul-18 16:33N 55°46' E 015°48'1111.3
2014-Jul-18 15:33N 55°40' E 015°31'1211.3
2014-Jul-18 14:27N 55°34' E 015°11'1011.3
2014-Jul-18 13:33N 55°29' E 014°56'1211.4
2014-Jul-18 12:32N 55°23' E 014°38'1211.4
2014-Jul-18 11:31N 55°15' E 014°24'1110.7
2014-Jul-18 10:30N 55°10' E 014°07'1111.3
2014-Jul-18 09:33N 55°11' E 013°49'1211.5
2014-Jul-18 08:33N 55°12' E 013°29'1111.5
2014-Jul-18 07:33N 55°14' E 013°09'1212.0
2014-Jul-18 06:33N 55°16' E 012°48'10 9.5
2014-Jul-18 05:33N 55°24' E 012°40'1111.1
2014-Jul-18 04:33N 55°35' E 012°42'1111.1
2014-Jul-18 03:33N 55°46' E 012°41'1110.9
2014-Jul-18 02:33N 55°57' E 012°38'10 9.8
2014-Jul-18 01:33N 56°06' E 012°33'1110.7
2014-Jul-18 00:33N 56°12' E 012°17'1110.9
2014-Jul-17 23:33N 56°18' E 012°01'1111.2
2014-Jul-17 22:32N 56°26' E 011°45'1111.0
2014-Jul-17 21:33N 56°34' E 011°32'1110.8
2014-Jul-17 20:31N 56°41' E 011°18'1310.7
2014-Jul-17 19:17N 56°49' E 010°57'810.5
2014-Jul-17 18:33N 56°51' E 010°44'1010.2
2014-Jul-17 17:33N 56°56' E 010°28'10 9.8
2014-Jul-17 16:33N 56°60' E 010°11'6 5.7
2014-Jul-17 15:32N 57°03' E 010°03'0 0.0
2014-Jul-17 14:26N 57°03' E 010°03'0 0.0
2014-Jul-17 13:32N 57°03' E 010°03'0 0.0
2014-Jul-17 12:32N 57°03' E 010°03'0 0.0
2014-Jul-17 11:32N 57°03' E 010°03'0 0.0
2014-Jul-17 10:20N 57°03' E 010°03'0 0.0
2014-Jul-17 09:32N 57°03' E 010°03'0 0.0
2014-Jul-17 08:32N 57°03' E 010°03'0 0.0
2014-Jul-17 07:26N 57°03' E 010°03'0 0.0
2014-Jul-17 06:32N 57°03' E 010°03'0 0.0
2014-Jul-17 05:32N 57°03' E 010°03'0 0.0
2014-Jul-17 04:26N 57°03' E 010°03'0 0.0
2014-Jul-17 03:26N 57°03' E 010°03'0 0.0
2014-Jul-17 02:32N 57°03' E 010°03'0 0.0
2014-Jul-17 01:29N 57°03' E 010°03'0 0.0
2014-Jul-17 00:32N 57°03' E 010°03'0 0.0
2014-Jul-16 23:32N 57°03' E 010°03'0 0.0
2014-Jul-16 22:26N 57°03' E 010°03'0 0.0
2014-Jul-16 21:29N 57°03' E 010°03'0 0.0
2014-Jul-16 20:32N 57°03' E 010°03'0 0.0
2014-Jul-16 19:29N 57°03' E 010°03'0 0.0
2014-Jul-16 18:32N 57°03' E 010°03'0 0.0
2014-Jul-16 17:26N 57°03' E 010°03'0 0.0
2014-Jul-16 16:32N 57°03' E 010°03'0 0.0
2014-Jul-16 15:32N 57°03' E 010°03'0 0.0
2014-Jul-16 14:29N 57°03' E 010°03'0 0.0
2014-Jul-16 13:32N 57°03' E 010°03'0 0.0
2014-Jul-16 12:29N 57°03' E 010°03'0 0.0
2014-Jul-16 11:26N 57°03' E 010°03'0 0.0
2014-Jul-16 10:26N 57°03' E 010°03'0 0.0
2014-Jul-16 09:32N 57°03' E 010°03'0 0.0
2014-Jul-16 08:32N 57°03' E 010°03'0 0.0
2014-Jul-16 07:32N 57°03' E 010°03'0 0.0
2014-Jul-16 06:29N 57°03' E 010°03'0 0.0
2014-Jul-16 05:29N 57°03' E 010°03'0 0.0
2014-Jul-16 04:32N 57°03' E 010°03'0 0.0
2014-Jul-16 03:17N 57°03' E 010°03'0 0.0
2014-Jul-16 02:29N 57°03' E 010°03'0 0.0
2014-Jul-16 01:29N 57°03' E 010°03'0 0.0
2014-Jul-16 00:32N 57°03' E 010°03'0 0.0
2014-Jul-15 23:29N 57°03' E 010°03'0 0.0
2014-Jul-15 22:29N 57°03' E 010°03'0 0.0
2014-Jul-15 21:32N 57°03' E 010°03'0 0.0
2014-Jul-15 20:26N 57°03' E 010°03'0 0.0
2014-Jul-15 19:32N 57°03' E 010°03'0 0.0
2014-Jul-15 18:32N 57°03' E 010°03'0 0.0
2014-Jul-15 17:32N 57°03' E 010°03'3 3.5
2014-Jul-15 16:33N 57°01' E 010°08'10 9.2
2014-Jul-15 15:27N 56°57' E 010°25'  

Dump ship's entire track history